Air Force Academy, CO

4:50 AM MDT on June 25, 2017 (GMT -0600)
Usaf Academy

Weather History for KAFF - October, 2012

Change the Weather History Date:

Wednesday, October 3, 2012

  Actual Average Record
Temperature  
Mean Temperature 59 °F -  
Max Temperature 79 °F 64 °F 82 °F (2000)
Min Temperature 36 °F 37 °F 30 °F (2007)
Degree Days  
Heating Degree Days 6    
Growing Degree Days 9 (Base 50)    
Moisture  
Dew Point 24 °F    
Average Humidity 33    
Maximum Humidity 74    
Minimum Humidity 8    
Precipitation  
Precipitation 0.00 in - - ()
Sea Level Pressure  
Sea Level Pressure 29.79 in    
Wind  
Wind Speed 11 mph (North)    
Max Wind Speed 29 mph    
Max Gust Speed 44 mph    
Visibility 10 miles    
Events      
Averages and records for this station are not official NWS values.
T = Trace of Precipitation, MM = Missing Value Source: NWS Daily Summary

Daily Weather History Graph

Daily Weather History Graph

Search for Another Location

Airport or City:

Trip Planner

Search our weather history database for the weather conditions in past years. The results will help you decide how hot, cold, wet, or windy it might be!

Date:

Astronomy

Oct. 03, 2012 Rise Set
Actual Time 6:57 AM MDT 6:37 PM MDT
Civil Twilight 6:30 AM MDT 7:04 PM MDT
Nautical Twilight 6:00 AM MDT 7:35 PM MDT
Astronomical Twilight 5:28 AM MDT 8:06 PM MDT
Moon 8:34 PM MDT (10/3) 10:21 AM MDT (10/3)
Length of Visible Light 12h 33m
Length of Day
11h 40m
Waning Gibbous, 88% of the Moon is Illuminated
Oct 3
Waning Gibbous
Oct 8
Last Quarter
Oct 15
New
Oct 21
First Quarter
Oct 29
Full

Hourly Weather History & Observations

Time (MDT) Temp. Windchill Dew Point Humidity Pressure Visibility Wind Dir Wind Speed Gust Speed Precip Events Conditions
12:55 AM 44.1 °F 40.1 °F 31.8 °F 62% 29.77 in 10.0 mi NNE 6.9 mph - N/A   Clear
1:55 AM 47.7 °F - 27.5 °F 46% 29.75 in 10.0 mi ENE 12.7 mph - N/A   Clear
2:55 AM 53.2 °F - 25.5 °F 34% 29.73 in 10.0 mi Variable 6.9 mph - N/A   Clear
3:55 AM 48.4 °F - 29.1 °F 47% 29.75 in 10.0 mi North 6.9 mph - N/A   Clear
4:55 AM 47.3 °F - 27.1 °F 46% 29.76 in 10.0 mi NE 9.2 mph - N/A   Clear
5:55 AM 43.0 °F 37.7 °F 29.3 °F 59% 29.78 in 10.0 mi NNE 9.2 mph - N/A   Clear
6:55 AM 47.1 °F - 27.9 °F 47% 29.79 in 10.0 mi North 5.8 mph - N/A   Clear
7:55 AM 54.3 °F - 26.8 °F 35% 29.78 in 10.0 mi ENE 6.9 mph - N/A   Clear
8:55 AM 65.7 °F - 27.3 °F 24% 29.79 in 10.0 mi ESE 3.5 mph - N/A   Clear
9:55 AM 71.2 °F - 19.4 °F 14% 29.77 in 10.0 mi WNW 20.7 mph 26.5 mph N/A   Clear
10:55 AM 73.2 °F - 19.9 °F 13% 29.77 in 10.0 mi Calm Calm - N/A   Clear
11:55 AM 74.5 °F - 19.9 °F 13% 29.75 in 10.0 mi WSW 11.5 mph 19.6 mph N/A   Clear
12:55 PM 75.6 °F - 19.2 °F 12% 29.71 in 10.0 mi Variable 3.5 mph - N/A   Clear
1:55 PM 77.0 °F - 16.3 °F 10% 29.68 in 9.0 mi West 6.9 mph - N/A   Partly Cloudy
2:55 PM 79.2 °F - 13.5 °F 8% 29.66 in 10.0 mi West 18.4 mph 24.2 mph N/A   Partly Cloudy
3:55 PM 78.6 °F - 11.1 °F 8% 29.67 in 10.0 mi West 12.7 mph 27.6 mph N/A   Clear
4:55 PM 77.7 °F - 12.2 °F 8% 29.69 in 10.0 mi NW 16.1 mph 23.0 mph N/A   Clear
5:09 PM 77.0 °F - 17.6 °F 11% 29.69 in 10.0 mi North 13.8 mph 19.6 mph N/A   Clear
5:55 PM 74.3 °F - 21.6 °F 14% 29.73 in 10.0 mi ENE 9.2 mph - N/A   Clear
6:55 PM 67.6 °F - 25.5 °F 20% 29.78 in 10.0 mi NNW 5.8 mph - N/A   Clear
7:55 PM 55.8 °F - 32.2 °F 41% 29.92 in 10.0 mi North 26.5 mph 40.3 mph N/A   Clear
8:55 PM 47.3 °F - 31.8 °F 55% 29.99 in 10.0 mi North 25.3 mph 32.2 mph N/A   Clear
9:55 PM 42.4 °F 32.2 °F 30.7 °F 63% 30.01 in 10.0 mi North 27.6 mph 35.7 mph N/A   Clear
10:55 PM 39.9 °F 28.6 °F 30.4 °F 69% 30.04 in 10.0 mi North 28.8 mph 43.7 mph N/A   Clear
11:55 PM 36.5 °F 24.7 °F 28.8 °F 74% 30.05 in 10.0 mi North 25.3 mph 33.4 mph N/A   Clear